Regional Weather Roundup
Issued by NWS

Home | Current Version | Previous Version | Text Only | Print | Product List | Glossary Off
Versions: 1 2 3 4 5 6 7 8 9 10 11 12 13 14 15 16 17 18 19 20 21 22 23 24 25 26 27

000
ASUS45 KBOI 221610
RWRID

IDAHO REGIONAL WEATHER ROUNDUP
NATIONAL WEATHER SERVICE BOISE ID
900 AM MST THU FEB 22 2018

NOTE: "FAIR" INDICATES FEW OR NO CLOUDS BELOW 12000 FEET
WITH NO SIGNIFICANT WEATHER AND/OR OBSTRUCTIONS TO VISIBILITY

IDZ012-014-221700-
SOUTHWEST IDAHO


CITY           SKY/WX    TMP DP  RH WIND       PRES   REMARKS
BOISE          LGT SNOW  24  22  91 NW9       29.97R FOG     WCI  14
CALDWELL       LGT SNOW  26  24  92 NW5       30.01R VSB 3/4 WCI  20
MOUNTAIN HOME  LGT SNOW  26  26 100 E6        29.97R WCI  19
$$

IDZ016-017-221700-
SOUTHCENTRAL IDAHO


CITY           SKY/WX    TMP DP  RH WIND       PRES   REMARKS
BURLEY         PTSUNNY   24  12  60 S13       29.91S WCI  12
JEROME         CLOUDY    24  14  65 NE12      29.92R WCI  13
TWIN FALLS     CLOUDY    26  16  65 S10       29.90R WCI  16
$$

IDZ019>023-221700-
SOUTHEAST IDAHO


CITY           SKY/WX    TMP DP  RH WIND       PRES   REMARKS
IDAHO FALLS    PTSUNNY   19   9  65 CALM      29.97S
POCATELLO      PTSUNNY   22   9  57 CALM      29.96R
REXBURG        MOSUNNY   19   9  65 N5        29.97S WCI  12
$$

IDZ006-010-011-018-031-032-221700-
CENTRAL IDAHO MOUNTAINS


CITY           SKY/WX    TMP DP  RH WIND       PRES   REMARKS
MCCALL         LGT SNOW  18  15  88 CALM      29.81S FOG
HAILEY         LGT SNOW  19  18  93 W3        29.90R VSB 1
STANLEY          N/A     16  10  77 VRB6      29.78S WCI   7
SALMON         CLOUDY    22  18  85 CALM      29.96S
CHALLIS        CLOUDY    21  12  68 CALM      29.88R
$$

IDZ002-004-006-007-026-221700-
NORTHERN IDAHO


CITY           SKY/WX    TMP DP  RH WIND       PRES   REMARKS
LEWISTON       FLURRIES  24  20  84 W6        30.14R WCI  17
LOWELL           N/A     21  17  84 CALM      30.15R
COEUR D`ALENE  FLURRIES  18  12  77 N16       30.12R WCI   3
MULLAN PASS    SUNNY      7   4  87 SE9       29.85R WCI  -7
$$




USA.gov is the U.S. government's official web portal to all federal, state and local government web resources and services.